Location: Nitra
(0.0000°N, 18.0833°E)
Time: 12:58:14
(UTC+01:00)

Daily predictions for brighter satellites

Satellite Brightness Start Highest point End
(mag) Time Altitude Azimuth Time Altitude Azimuth Time Altitude Azimuth
ARIANE 5 DEB (SYLDA) 4.4 17:58:04 10° WNW 18:02:20 63° NNE 18:25:56 10° E
CZ-3B R/B 3.1 18:07:04 10° SSW 18:10:41 27° SE 18:18:54 10° E
YAOGAN 1 2.9 18:14:53 10° SSE 18:19:00 44° ENE 18:23:06 10° N
Hubble Space Telescope 3.3 18:16:20 10° WNW 18:19:02 17° NNW 18:21:43 10° NNE
Meteosat 1 Rocket2 3.2 18:18:20 10° SW 18:22:11 57° SSE 18:27:23 10° ENE
Meteor 1-15 Rocket 4.3 18:18:44 10° S 18:24:27 63° E 18:30:01 10° NNE
Cosmos 1821 Rocket 4.2 18:22:53 10° N 18:29:15 82° W 18:35:35 10° S
NOSS 3-2 (C) 4.3 18:25:37 10° SSE 18:29:59 23° ESE 18:34:19 10° ENE
ARIANE 44L R/B 3.9 18:26:17 10° W 18:30:03 84° S 18:47:33 14° E
Ariane Rocket 3.4 18:27:29 10° SSE 18:32:18 42° ENE 18:37:04 10° N
Cosmos 1842 3.2 18:31:06 10° N 18:34:55 64° E 18:38:44 10° SSE
Cosmos 2297 Rocket 4.0 18:34:34 10° ENE 18:34:57 10° ENE 18:34:57 10° ENE
Aurora 2 Rocket 3.9 18:36:13 10° S 18:37:52 13° SSE 18:39:09 11° SE
NOSS 3-2 (A) 3.3 18:34:19 10° S 18:39:47 53° ESE 18:45:13 10° NE
Meteor 1-21 4.2 18:34:38 10° N 18:40:18 74° E 18:45:54 10° S
Cosmos 2219 3.8 18:36:52 10° NNE 18:41:49 32° ENE 18:46:47 10° SE
Cosmos 1346 Rocket 4.0 18:38:52 10° SSW 18:42:47 48° W 18:46:43 10° N
Cosmos 1980 Rocket 2.4 18:37:40 10° SSW 18:43:16 74° WNW 18:48:52 10° N
Cosmos 1340 2.7 18:40:12 10° S 18:43:59 83° W 18:47:45 10° N
IUS-17 SRM-1 3.6 18:44:44 10° NNW 18:46:36 17° NNE 18:47:01 16° NE
Cosmos 1892 Rocket 4.4 18:44:46 10° NNE 18:48:27 27° E 18:52:10 10° SE
Cosmos 1302 Rocket 4.1 18:45:55 10° N 18:51:00 52° ENE 18:56:07 10° SSE
Cosmos 1190 Rocket 4.1 18:49:26 10° SSW 18:54:41 82° WNW 18:59:57 10° N
GPS 2-05 Rocket1 4.0 18:52:32 10° NNW 18:54:39 21° NNE 18:54:39 21° NNE
ATLAS 3B CENTAUR R/B 2.1 18:54:11 10° W 18:56:15 20° NW 18:57:11 15° N
ATLAS 3B R/B 2.9 18:49:45 10° S 18:56:49 52° ESE 19:03:36 10° NE
SWIFT 3.7 18:54:04 10° NW 18:57:28 24° NNE 18:58:42 21° NE
CZ-2D R/B 3.7 18:55:27 15° SE 18:58:08 36° E 19:01:39 10° N
Tiangong 2 3.5 18:58:57 10° S 18:59:29 12° SSE 18:59:29 12° SSE
Cosmos 1000 Rocket 4.5 18:54:44 10° S 19:01:00 65° E 19:07:14 10° NNE
Ariane H10+ 2.3 19:01:39 10° NW 19:04:03 30° NNE 19:05:17 25° NE
Ariane H10+ 1.6 19:01:06 10° W 19:04:57 87° N 19:05:24 56° ENE
CENTAUR R/B 3.3 19:00:55 10° SSE 19:04:15 22° SE 19:04:15 22° SE
YAOGAN 6 2.5 19:03:44 10° SSE 19:07:26 83° E 19:11:08 10° N
Cosmos 407 Rocket 4.4 19:02:35 10° SSW 19:07:45 51° WNW 19:12:54 10° N
CZ-4 R/B 4.2 19:05:49 10° SSW 19:08:50 20° WSW 19:11:53 10° NW
Cosmos 1378 4.4 19:09:10 10° NNW 19:12:40 41° W 19:16:10 10° SSW
ARIANE 5 R/B 4.1 19:08:00 10° WSW 19:12:55 78° S 19:27:33 27° E
Lacrosse 5 rocket 3.6 19:09:57 10° WNW 19:13:38 26° WSW 19:17:26 10° S
Cosmos 1766 3.0 19:13:10 10° S 19:17:03 71° E 19:18:11 43° NNE
TIMED 4.3 19:15:12 10° S 19:19:33 75° E 19:21:13 37° NNE
GP-B 4.1 19:16:51 10° SSW 19:21:07 48° W 19:25:23 10° NNW
Palapa 6 Rocket 4.4 19:17:47 10° WNW 19:25:44 83° NNE 19:28:59 41° ESE
Meteor 1-22 Rocket 4.0 19:23:57 10° S 19:29:21 89° W 19:34:37 10° N
Cosmos 1153 Rocket 4.4 19:24:06 10° N 19:30:30 84° E 19:36:54 10° S
Cosmos 2322 Rocket 2.0 19:26:49 10° S 19:32:25 70° ESE 19:33:23 57° NE
Cosmos 1140 Rocket 4.4 19:29:00 10° SSW 19:34:00 48° WNW 19:39:02 10° N
Cosmos 2227 Rocket 2.8 19:29:28 10° N 19:33:23 40° NNE 19:33:23 40° NNE
SPOT 3 Rocket 4.1 19:37:04 44° NNE 19:37:04 44° NNE 19:40:43 10° N
Maqsat-B 3.9 19:34:50 10° WNW 19:42:32 37° N 19:42:50 36° N
BLOCK-DM UPPERSTAGE 3.6 19:43:53 10° W 19:47:39 89° NNE 19:47:42 88° NE
Cosmos 2285 Rocket 4.5 19:45:05 10° SSW 19:51:15 58° WNW 19:57:27 10° N
SL-16 R/B 2.7 19:49:50 10° SSW 19:55:21 56° WNW 19:57:34 35° NNW
Gbstr 26 Del rocket 4.0 19:51:04 10° NW 19:55:45 58° WSW 19:55:45 58° WSW
OAO 2 Rocket 4.2 19:53:53 10° NW 19:57:29 46° NW 19:57:29 46° NW
Ariane H10 3.6 19:46:26 10° W 19:58:52 58° NNW 19:58:52 58° NNW
Cosmos 2297 Rocket 3.6 20:13:47 10° NNW 20:16:53 31° NW 20:16:53 31° NW
CZ-3B R/B 4.1 21:00:30 10° W 21:42:26 - NE 21:08:24 60° NW
